Regional Weather Roundup
Issued by NWS

Home | Current Version | Previous Version | Graphics & Text | Print | Product List | Glossary On
Versions: 1 2 3 4 5 6 7 8 9 10 11 12 13 14 15 16 17 18 19 20 21 22 23 24 25 26 27 28 29 30 31 32 33 34 35 36 37 38 39 40 41 42 43 44 45 46 47 48 49 50
660
ASUS45 KPSR 122310
RWRAZ

ARIZONA HOURLY REGIONAL WEATHER ROUNDUP
NATIONAL WEATHER SERVICE PHOENIX AZ
400 PM MST FRI FEB 12 2016

NOTE: FAIR INDICATES FEW OR NO CLOUDS BELOW 12,000 FEET WITH NO
SIGNIFICANT WEATHER AND/OR OBSTRUCTIONS TO VISIBILITY.

AZZ001>003-036-130000-
NORTHWEST ARIZONA

CITY           SKY/WX    TMP DP  RH WIND       PRES   REMARKS
BULLHEAD CITY  SUNNY     79  23  12 N17       30.07F
KINGMAN        SUNNY     75  23  14 N5        30.17F
$$

AZZ004>008-015-016-018-130000-
NORTH CENTRAL ARIZONA

CITY           SKY/WX    TMP DP  RH WIND       PRES   REMARKS
GRAND CANYON   SUNNY     67  12  12 CALM      30.32F
WILLIAMS       SUNNY     66  14  13 W7        30.37S
PRESCOTT       SUNNY     73  11   9 W3        30.23F
FLAGSTAFF      SUNNY     62  14  15 CALM      30.34F
PAYSON         SUNNY     70  16  12 SW7       30.26S
PAGE           SUNNY     57  32  38 NE3       30.29F
$$

AZZ009>014-017-130000-
NORTHEAST ARIZONA

CITY           SKY/WX    TMP DP  RH WIND       PRES   REMARKS
WINSLOW        SUNNY     68  17  14 CALM      30.27F
SAINT JOHNS    SUNNY     71   6   8 N6        30.27S
WINDOW ROCK    SUNNY     67   0   7 S3        30.33F
SHOW LOW       SUNNY     64  14  14 CALM      30.33S
$$

AZZ023-130000-
GREATER PHOENIX AREA

CITY           SKY/WX    TMP DP  RH WIND       PRES   REMARKS
PHOENIX        MOSUNNY   85  21   9 NW5       30.03F
BUCKEYE        SUNNY     81  36  19 SE7       30.06F
GLENDALE       SUNNY     82  28  14 CALM      30.06F
LUKE AFB       SUNNY     83  28  13 E2        30.03F
DEER VALLEY    SUNNY     81  29  15 W3        30.05F
SCOTTSDALE     SUNNY     82  22  11 SW3       30.06F
MESA-FALCON    MOSUNNY  N/A N/A N/A CALM      30.04F
MESA-GATEWAY   MOSUNNY   82  27  13 CALM      30.05F
CHANDLER       SUNNY     84  23  10 CALM      30.04F
$$

AZZ027-028-130000-
SOUTHWEST MARICOPA COUNTY AND PINAL COUNTY

CITY           SKY/WX    TMP DP  RH WIND       PRES   REMARKS
CASA GRANDE    SUNNY     81  30  16 N5        30.06F
GILA BEND      SUNNY     86  21   9 NE6       30.02F
$$

AZZ503-504-507>509-130000-
SOUTHEAST ARIZONA

CITY           SKY/WX    TMP DP  RH WIND       PRES   REMARKS
TUCSON         SUNNY     87  11   6 NE5       30.09F
DAVIS-MONTHAN  SUNNY     84  10   6 NW3       30.07F
RYAN FIELD     SUNNY     86  21   9 NW7       30.08F
NOGALES        MOSUNNY   82   6   5 SW5       30.13F
SIERRA VISTA   SUNNY     76   0   5 SE6       30.20F
DOUGLAS        SUNNY     78   1   5 S7        30.18F
SAFFORD        SUNNY     78  18  10 E3        30.14F
$$

AZZ020-021-025-026-031-130000-
SOUTHWEST ARIZONA

CITY           SKY/WX    TMP DP  RH WIND       PRES   REMARKS
YUMA           MOSUNNY   87  23   9 N7        30.02F
$$

CAZ031-033-041-043-047-048-061-130000-
SOUTHERN CALIFORNIA

CITY           SKY/WX    TMP DP  RH WIND       PRES   REMARKS
DOWNTOWN L.A.  SUNNY     80  41  24 MISG      30.01F
L.A. AIRPORT   MOSUNNY   71  48  43 W10       30.03F
SAN DIEGO      MOSUNNY   73  41  31 NW10      30.04S
BURBANK        SUNNY     85  29  13 S5        30.02F
ONTARIO        MOSUNNY   86  24  10 SW8       30.03F
RIVERSIDE      MOSUNNY   87  23   9 W7        30.02F
PALM SPRINGS   SUNNY     86  24  10 SE6       30.05F
EL CENTRO NAS  MOSUNNY   86  26  11 CALM      30.04F
IMPERIAL       SUNNY     85  27  12 CALM      30.01F
BLYTHE         SUNNY     82  30  15 E6        30.04F
NEEDLES        SUNNY     82  25  12 N6        30.08F
$$

NVZ020-UTZ003-130000-
SOUTHERN NEVADA-UTAH

CITY           SKY/WX    TMP DP  RH WIND       PRES   REMARKS
LAS VEGAS      MOSUNNY   74  23  15 CALM      30.11F
SALT LAKE CITY CLOUDY    34  27  75 N5        30.35F HAZE    WCI  30
$$

NMZ009-TXZ055-130000-
NEW MEXICO-WEST TEXAS

CITY           SKY/WX    TMP DP  RH WIND       PRES   REMARKS
ALBUQUERQUE    SUNNY     66  19  16 CALM      30.29F
EL PASO        SUNNY     74  11   9 VRB3      30.22F
$$


........................KEY........................
SKY/WX - SKY CONDITION/WEATHER
TMP    - TEMPERATURE IN FAHRENHEIT
DP     - DEW POINT IN FAHRENHEIT
RH     - RELATIVE HUMIDITY IN PERCENT
WIND   - DIRECTION AND SPEED IN MILES PER HOUR (MPH)
VRB    - VARIABLE WIND DIRECTION
PRES   - MEAN SEA LEVEL PRESSURE IN INCHES OF MERCURY
         F - FALLING PRESSURE   R - RISING PRESSURE
         S - STEADY PRESSURE
VSB    - VISIBILITY IN MILES
HX     - HEAT INDEX IN FAHRENHEIT
WCI    - WIND CHILL INDEX IN FAHRENHEIT
TC     - TEMPERATURE IN CELSIUS WHICH IS ALSO KNOWN AS
         TEMPERATURE IN CENTIGRADE
AFB    - AIR FORCE BASE
         LUKE AFB IS LUKE AIR FORCE BASE
         DAVIS-MONTHAN IS DAVIS-MONTHAN AIR FORCE BASE
NAS    - NAVAL AIR STATION
         EL CENTRO NAS IS EL CENTRO NAVAL AIR STATION
N/A    - NOT AVAILABLE





USA.gov is the U.S. government's official web portal to all federal, state and local government web resources and services.